"Period start","avg(HW err(1)/warn(2) (#))","avg(Visibility (m))","avg(Weather code (#))","avg(Precip intensity (mm/h))","min(HW err(1)/warn(2) (#))","max(HW err(1)/warn(2) (#))","std(HW err(1)/warn(2) (#))","med(HW err(1)/warn(2) (#))","min(Visibility (m))","max(Visibility (m))","std(Visibility (m))","med(Visibility (m))","min(Weather code (#))","max(Weather code (#))","std(Weather code (#))","med(Weather code (#))","min(Precip intensity (mm/h))","max(Precip intensity (mm/h))","std(Precip intensity (mm/h))","med(Precip intensity (mm/h))"
2014-12-29 00:00:00,2,41252,14,0.03,2,2,0,2,12257,50000,14268,50000,0,71,28,0,0.00,0.30,0.09,0.00
2014-12-29 00:10:00,2,15619,71,0.18,2,2,0,2,5066,32354,7949,14511,71,71,0,71,0.00,0.70,0.24,0.08
2014-12-29 00:20:00,2,18126,71,0.13,2,2,0,2,8894,32831,6361,17439,71,71,0,71,0.00,0.45,0.14,0.05
2014-12-29 00:30:00,2,40370,74,0.01,2,2,0,2,17937,50000,9561,44693,71,77,3,74,0.00,0.10,0.03,0.00
2014-12-29 00:40:00,2,30754,76,0.05,2,2,0,2,17573,48871,10395,30930,71,77,2,77,0.00,0.30,0.09,0.00
2014-12-29 00:50:00,2,19693,71,0.11,2,2,0,2,8920,30856,7065,17586,71,71,0,71,0.00,0.45,0.13,0.05
2014-12-29 01:00:00,2,23098,71,0.11,2,2,0,2,16880,37006,6336,21332,71,71,0,71,0.00,0.30,0.11,0.08
2014-12-29 01:10:00,2,42004,72,0.03,2,2,0,2,25253,50000,8234,43672,71,77,2,71,0.00,0.30,0.09,0.00
2014-12-29 01:20:00,2,45716,30,0.03,2,2,0,2,28910,50000,7260,50000,0,77,37,0,0.00,0.25,0.08,0.00
2014-12-29 01:30:00,2,48989,0,0.00,2,2,0,2,44282,50000,2030,50000,0,0,0,0,0.00,0.00,0.00,0.00
2014-12-29 01:40:00,2,50000,0,0.00,2,2,0,2,50000,50000,0,50000,0,0,0,0,0.00,0.00,0.00,0.00
2014-12-29 01:50:00,2,49974,0,0.00,2,2,0,2,49738,50000,79,50000,0,0,0,0,0.00,0.00,0.00,0.00
2014-12-29 02:00:00,2,49179,0,0.00,2,2,0,2,45348,50000,1567,50000,0,0,0,0,0.00,0.00,0.00,0.00
2014-12-29 02:10:00,2,49985,0,0.00,2,2,0,2,49849,50000,45,50000,0,0,0,0,0.00,0.00,0.00,0.00
2014-12-29 02:20:00,2,49803,0,0.00,2,2,0,2,48034,50000,590,50000,0,0,0,0,0.00,0.00,0.00,0.00
2014-12-29 02:30:00,2,50000,0,0.00,2,2,0,2,50000,50000,0,50000,0,0,0,0,0.00,0.00,0.00,0.00
2014-12-29 02:40:00,2,50000,0,0.00,2,2,0,2,50000,50000,0,50000,0,0,0,0,0.00,0.00,0.00,0.00
2014-12-29 02:50:00,2,50000,0,0.00,2,2,0,2,50000,50000,0,50000,0,0,0,0,0.00,0.00,0.00,0.00
2014-12-29 03:00:00,2,49843,0,0.00,2,2,0,2,48430,50000,471,50000,0,0,0,0,0.00,0.00,0.00,0.00
2014-12-29 03:10:00,2,49594,0,0.00,2,2,0,2,45943,50000,1217,50000,0,0,0,0,0.00,0.00,0.00,0.00
2014-12-29 03:20:00,2,49951,0,0.00,2,2,0,2,49510,50000,147,50000,0,0,0,0,0.00,0.00,0.00,0.00
2014-12-29 03:30:00,2,49783,0,0.00,2,2,0,2,47831,50000,651,50000,0,0,0,0,0.00,0.00,0.00,0.00
2014-12-29 03:40:00,2,49851,0,0.00,2,2,0,2,48509,50000,447,50000,0,0,0,0,0.00,0.00,0.00,0.00
2014-12-29 03:50:00,2,50000,0,0.00,2,2,0,2,50000,50000,0,50000,0,0,0,0,0.00,0.00,0.00,0.00
2014-12-29 04:00:00,2,50000,0,0.00,2,2,0,2,50000,50000,0,50000,0,0,0,0,0.00,0.00,0.00,0.00
2014-12-29 04:10:00,2,50000,0,0.00,2,2,0,2,50000,50000,0,50000,0,0,0,0,0.00,0.00,0.00,0.00
2014-12-29 04:20:00,2,50000,0,0.00,2,2,0,2,50000,50000,0,50000,0,0,0,0,0.00,0.00,0.00,0.00
2014-12-29 04:30:00,2,50000,0,0.00,2,2,0,2,50000,50000,0,50000,0,0,0,0,0.00,0.00,0.00,0.00
2014-12-29 04:40:00,2,50000,0,0.00,2,2,0,2,50000,50000,0,50000,0,0,0,0,0.00,0.00,0.00,0.00
2014-12-29 04:50:00,2,50000,0,0.00,2,2,0,2,50000,50000,0,50000,0,0,0,0,0.00,0.00,0.00,0.00
2014-12-29 05:00:00,2,50000,0,0.00,2,2,0,2,50000,50000,0,50000,0,0,0,0,0.00,0.00,0.00,0.00
2014-12-29 05:10:00,2,50000,0,0.00,2,2,0,2,50000,50000,0,50000,0,0,0,0,0.00,0.00,0.00,0.00
2014-12-29 05:20:00,2,49913,0,0.00,2,2,0,2,49134,50000,260,50000,0,0,0,0,0.00,0.00,0.00,0.00
2014-12-29 05:30:00,2,50000,0,0.00,2,2,0,2,50000,50000,0,50000,0,0,0,0,0.00,0.00,0.00,0.00
2014-12-29 05:40:00,2,49997,0,0.00,2,2,0,2,49969,50000,9,50000,0,0,0,0,0.00,0.00,0.00,0.00
2014-12-29 05:50:00,2,49847,0,0.00,2,2,0,2,48473,50000,458,50000,0,0,0,0,0.00,0.00,0.00,0.00
2014-12-29 06:00:00,2,50000,0,0.00,2,2,0,2,50000,50000,0,50000,0,0,0,0,0.00,0.00,0.00,0.00
2014-12-29 06:10:00,2,50000,0,0.00,2,2,0,2,50000,50000,0,50000,0,0,0,0,0.00,0.00,0.00,0.00
2014-12-29 06:20:00,2,50000,0,0.00,2,2,0,2,50000,50000,0,50000,0,0,0,0,0.00,0.00,0.00,0.00
2014-12-29 06:30:00,2,50000,0,0.00,2,2,0,2,50000,50000,0,50000,0,0,0,0,0.00,0.00,0.00,0.00
2014-12-29 06:40:00,2,50000,0,0.00,2,2,0,2,50000,50000,0,50000,0,0,0,0,0.00,0.00,0.00,0.00
2014-12-29 06:50:00,2,49925,0,0.00,2,2,0,2,49251,50000,225,50000,0,0,0,0,0.00,0.00,0.00,0.00
2014-12-29 07:00:00,2,49772,0,0.00,2,2,0,2,48574,50000,453,50000,0,0,0,0,0.00,0.00,0.00,0.00
2014-12-29 07:10:00,2,49810,0,0.00,2,2,0,2,48096,50000,571,50000,0,0,0,0,0.00,0.00,0.00,0.00
2014-12-29 07:20:00,2,28978,0,0.00,2,2,0,2,11700,50000,16033,22430,0,0,0,0,0.00,0.00,0.00,0.00
2014-12-29 07:30:00,2,10724,71,0.06,2,2,0,2,7276,15318,2490,9952,71,71,0,71,0.00,0.25,0.08,0.03
2014-12-29 07:40:00,2,13517,73,0.02,2,2,0,2,10342,16070,1872,13866,71,77,3,71,0.00,0.10,0.04,0.00
2014-12-29 07:50:00,2,20948,44,0.00,2,2,0,2,15412,31301,4820,19838,0,78,36,71,0.00,0.00,0.00,0.00
2014-12-29 08:00:00,2,33719,45,0.00,2,2,0,2,18636,50000,11100,31688,0,78,37,71,0.00,0.00,0.00,0.00
2014-12-29 08:10:00,2,39572,0,0.00,2,2,0,2,32505,50000,6585,36564,0,0,0,0,0.00,0.00,0.00,0.00
2014-12-29 08:20:00,2,40270,0,0.00,2,2,0,2,27873,48837,5625,40962,0,0,0,0,0.00,0.00,0.00,0.00
2014-12-29 08:30:00,2,39451,0,0.00,2,2,0,2,31148,49134,6394,37442,0,0,0,0,0.00,0.00,0.00,0.00
2014-12-29 08:40:00,2,49213,0,0.00,2,2,0,2,45743,50000,1303,49858,0,0,0,0,0.00,0.00,0.00,0.00
2014-12-29 08:50:00,2,43092,0,0.00,2,2,0,2,37859,49917,3376,43094,0,0,0,0,0.00,0.00,0.00,0.00
2014-12-29 09:00:00,2,44854,0,0.00,2,2,0,2,31290,50000,6916,50000,0,0,0,0,0.00,0.00,0.00,0.00
2014-12-29 09:10:00,2,48528,0,0.00,2,2,0,2,45369,50000,1824,49825,0,0,0,0,0.00,0.00,0.00,0.00
2014-12-29 09:20:00,2,49310,0,0.00,2,2,0,2,46777,50000,1252,50000,0,0,0,0,0.00,0.00,0.00,0.00
2014-12-29 09:30:00,2,46832,0,0.00,2,2,0,2,40311,50000,3280,47418,0,0,0,0,0.00,0.00,0.00,0.00
2014-12-29 09:40:00,2,45050,0,0.00,2,2,0,2,37067,49422,4049,45470,0,0,0,0,0.00,0.00,0.00,0.00
2014-12-29 09:50:00,2,49564,0,0.00,2,2,0,2,45950,50000,1208,50000,0,0,0,0,0.00,0.00,0.00,0.00
2014-12-29 10:00:00,2,27006,43,0.06,2,2,0,2,13263,50000,12322,22100,0,71,35,71,0.00,0.30,0.10,0.00
2014-12-29 10:10:00,2,44025,63,0.00,2,2,0,2,36033,50000,5055,44124,41,77,15,71,0.00,0.00,0.00,0.00
2014-12-29 10:20:00,2,49527,0,0.00,2,2,0,2,46355,50000,1105,50000,0,0,0,0,0.00,0.00,0.00,0.00
2014-12-29 10:30:00,2,46550,0,0.00,2,2,0,2,40642,50000,3746,48114,0,0,0,0,0.00,0.00,0.00,0.00
2014-12-29 10:40:00,2,49432,0,0.00,2,2,0,2,45626,50000,1309,50000,0,0,0,0,0.00,0.00,0.00,0.00
2014-12-29 10:50:00,2,47048,0,0.00,2,2,0,2,37479,50000,4331,49539,0,0,0,0,0.00,0.00,0.00,0.00
2014-12-29 11:00:00,2,33719,69,0.01,2,2,0,2,21234,44742,8148,34685,0,78,23,78,0.00,0.05,0.02,0.00
2014-12-29 11:10:00,2,29376,78,0.00,2,2,0,2,18903,41176,8120,27888,77,78,0,78,0.00,0.00,0.00,0.00
2014-12-29 11:20:00,2,12961,77,0.02,2,2,0,2,8432,20523,4004,12005,77,78,0,77,0.00,0.05,0.02,0.00
2014-12-29 11:30:00,2,13639,77,0.01,2,2,0,2,10075,17505,2299,13448,77,77,0,77,0.00,0.05,0.02,0.00
2014-12-29 11:40:00,2,17471,77,0.01,2,2,0,2,12477,23207,3038,16634,77,77,0,77,0.00,0.05,0.02,0.00
2014-12-29 11:50:00,2,32887,78,0.00,2,2,0,2,11172,46680,10264,30836,77,78,0,78,0.00,0.00,0.00,0.00
2014-12-29 12:00:00,2,22007,75,0.01,2,2,0,2,15486,28431,3290,22204,71,78,3,77,0.00,0.15,0.05,0.00
2014-12-29 12:10:00,2,28485,70,0.00,2,2,0,2,21441,34742,4155,30060,0,78,23,78,0.00,0.00,0.00,0.00
2014-12-29 12:20:00,2,12786,57,0.13,2,2,0,2,6341,33155,7106,11108,0,71,28,71,0.00,0.45,0.15,0.08
2014-12-29 12:30:00,2,9873,71,0.41,2,2,0,2,5110,13267,2422,10198,71,71,0,71,0.05,1.35,0.41,0.23
2014-12-29 12:40:00,2,8284,71,0.14,2,2,0,2,7048,10193,885,8316,71,71,0,71,0.00,0.45,0.13,0.08
2014-12-29 12:50:00,2,4900,71,0.21,2,2,0,2,3102,7648,1282,5041,71,71,0,71,0.05,0.50,0.14,0.20
2014-12-29 13:00:00,2,3396,71,0.35,2,2,0,2,3064,3994,309,3274,71,71,0,71,0.15,0.55,0.14,0.30
2014-12-29 13:10:00,2,4243,71,0.26,2,2,0,2,2772,5567,860,4450,71,71,0,71,0.10,0.65,0.17,0.23
2014-12-29 13:20:00,2,12234,71,0.06,2,2,0,2,4999,20989,5548,10847,71,71,0,71,0.00,0.20,0.06,0.05
2014-12-29 13:30:00,2,33206,77,0.00,2,2,0,2,19647,48403,9068,30803,71,78,2,77,0.00,0.00,0.00,0.00
2014-12-29 13:40:00,2,41016,23,0.00,2,2,0,2,33912,46394,4028,41817,0,78,36,0,0.00,0.00,0.00,0.00
2014-12-29 13:50:00,2,39611,0,0.00,2,2,0,2,28525,47058,6986,42386,0,0,0,0,0.00,0.00,0.00,0.00
2014-12-29 14:00:00,2,23668,21,0.01,2,2,0,2,11335,38906,8531,22539,0,71,33,0,0.00,0.15,0.05,0.00
2014-12-29 14:10:00,2,32285,74,0.00,2,2,0,2,21803,41136,6841,34349,71,78,3,74,0.00,0.00,0.00,0.00
2014-12-29 14:20:00,2,31806,77,0.00,2,2,0,2,13414,49697,13827,33199,77,78,0,77,0.00,0.00,0.00,0.00
2014-12-29 14:30:00,2,8554,77,0.15,2,2,0,2,4538,14150,2949,8014,77,77,0,77,0.00,0.55,0.16,0.08
2014-12-29 14:40:00,2,3668,72,0.52,2,2,0,2,3098,4485,456,3544,71,77,2,71,0.25,1.15,0.25,0.40
2014-12-29 14:50:00,2,3774,71,0.38,2,2,0,2,2854,4434,439,3744,71,71,0,71,0.20,0.70,0.16,0.30
2014-12-29 15:00:00,2,4078,71,0.43,2,2,0,2,3322,5123,544,4145,71,71,0,71,0.30,0.60,0.11,0.42
2014-12-29 15:10:00,2,4687,71,0.24,2,2,0,2,3597,5544,551,4692,71,71,0,71,0.15,0.50,0.11,0.20
2014-12-29 15:20:00,2,4113,75,0.18,2,2,0,2,3278,4703,439,4244,71,77,3,77,0.05,0.30,0.07,0.20
2014-12-29 15:30:00,2,4342,71,0.41,2,2,0,2,3250,5125,690,4477,71,71,0,71,0.10,1.05,0.27,0.33
2014-12-29 15:40:00,2,4965,71,0.28,2,2,0,2,3752,6169,671,4879,71,71,0,71,0.05,0.40,0.10,0.30
2014-12-29 15:50:00,2,7013,73,0.11,2,2,0,2,5312,8029,720,6990,71,77,3,71,0.05,0.30,0.07,0.10
2014-12-29 16:00:00,2,11029,73,0.03,2,2,0,2,6534,20297,3812,10604,71,77,3,71,0.00,0.10,0.05,0.00
2014-12-29 16:10:00,2,28234,75,0.01,2,2,0,2,20131,35246,5188,27469,71,77,3,77,0.00,0.05,0.02,0.00
2014-12-29 16:20:00,2,25543,77,0.02,2,2,0,2,11287,41257,10510,24952,77,77,0,77,0.00,0.10,0.03,0.00
2014-12-29 16:30:00,2,11414,77,0.03,2,2,0,2,7636,16366,2856,11260,77,77,0,77,0.00,0.10,0.03,0.00
2014-12-29 16:40:00,2,8156,77,0.04,2,2,0,2,6484,11150,1348,7689,77,77,0,77,0.00,0.10,0.03,0.05
2014-12-29 16:50:00,2,9375,77,0.02,2,2,0,2,8099,10392,906,9673,77,77,0,77,0.00,0.05,0.02,0.00
2014-12-29 17:00:00,2,10542,77,0.03,2,2,0,2,7948,13154,1675,10406,77,77,0,77,0.00,0.10,0.03,0.03
2014-12-29 17:10:00,2,7580,77,0.04,2,2,0,2,6382,8854,764,7578,77,77,0,77,0.00,0.05,0.02,0.05
2014-12-29 17:20:00,2,7405,77,0.04,2,2,0,2,6819,8156,405,7321,77,77,0,77,0.00,0.05,0.02,0.05
2014-12-29 17:30:00,2,8840,77,0.02,2,2,0,2,8171,9621,443,8830,77,77,0,77,0.00,0.05,0.02,0.00
2014-12-29 17:40:00,2,9562,77,0.02,2,2,0,2,8367,10517,697,9744,77,77,0,77,0.00,0.05,0.02,0.00
2014-12-29 17:50:00,2,9351,77,0.02,2,2,0,2,6599,12211,1863,9274,77,77,0,77,0.00,0.05,0.02,0.00
2014-12-29 18:00:00,2,9513,77,0.00,2,2,0,2,8767,10505,597,9429,77,77,0,77,0.00,0.00,0.00,0.00
2014-12-29 18:10:00,2,10661,77,0.00,2,2,0,2,8536,12713,1244,10378,77,77,0,77,0.00,0.00,0.00,0.00
2014-12-29 18:20:00,2,12458,77,0.00,2,2,0,2,10886,13998,999,12415,77,77,0,77,0.00,0.00,0.00,0.00
2014-12-29 18:30:00,2,18853,31,0.00,2,2,0,2,13352,25299,2926,18590,0,77,38,0,0.00,0.00,0.00,0.00
2014-12-29 18:40:00,2,33811,0,0.00,2,2,0,2,25756,47085,6995,30970,0,0,0,0,0.00,0.00,0.00,0.00
2014-12-29 18:50:00,2,49893,0,0.00,2,2,0,2,49019,50000,293,50000,0,0,0,0,0.00,0.00,0.00,0.00
2014-12-29 19:00:00,2,42893,0,0.00,2,2,0,2,29808,50000,6637,44059,0,0,0,0,0.00,0.00,0.00,0.00
2014-12-29 19:10:00,2,36800,0,0.00,2,2,0,2,27029,44852,6507,39552,0,0,0,0,0.00,0.00,0.00,0.00
2014-12-29 19:20:00,2,36210,0,0.00,2,2,0,2,27580,46563,7093,34242,0,0,0,0,0.00,0.00,0.00,0.00
2014-12-29 19:30:00,2,29370,0,0.00,2,2,0,2,23643,35336,3143,29508,0,0,0,0,0.00,0.00,0.00,0.00
2014-12-29 19:40:00,2,34822,0,0.00,2,2,0,2,30164,37651,2551,35912,0,0,0,0,0.00,0.00,0.00,0.00
2014-12-29 19:50:00,2,42763,0,0.00,2,2,0,2,28294,50000,6212,44600,0,0,0,0,0.00,0.00,0.00,0.00
2014-12-29 20:00:00,2,48511,0,0.00,2,2,0,2,41662,50000,2589,50000,0,0,0,0,0.00,0.00,0.00,0.00
2014-12-29 20:10:00,2,49916,0,0.00,2,2,0,2,49158,50000,253,50000,0,0,0,0,0.00,0.00,0.00,0.00
2014-12-29 20:20:00,2,50000,0,0.00,2,2,0,2,50000,50000,0,50000,0,0,0,0,0.00,0.00,0.00,0.00
2014-12-29 20:30:00,2,49455,0,0.00,2,2,0,2,48189,50000,656,49810,0,0,0,0,0.00,0.00,0.00,0.00
2014-12-29 20:40:00,2,49668,0,0.00,2,2,0,2,47553,50000,726,50000,0,0,0,0,0.00,0.00,0.00,0.00
2014-12-29 20:50:00,2,32656,0,0.00,2,2,0,2,15398,50000,14231,28920,0,0,0,0,0.00,0.00,0.00,0.00
2014-12-29 21:00:00,2,14243,22,0.00,2,2,0,2,9677,21445,4530,11418,0,78,34,0,0.00,0.00,0.00,0.00
2014-12-29 21:10:00,2,20237,78,0.00,2,2,0,2,10523,32584,7682,17786,78,78,0,78,0.00,0.00,0.00,0.00
2014-12-29 21:20:00,2,35856,55,0.00,2,2,0,2,25712,50000,8726,32636,0,78,36,78,0.00,0.00,0.00,0.00
2014-12-29 21:30:00,2,33529,0,0.00,2,2,0,2,17607,50000,11977,31434,0,0,0,0,0.00,0.00,0.00,0.00
2014-12-29 21:40:00,2,15553,38,0.00,2,2,0,2,13217,18031,1628,14984,0,78,38,36,0.00,0.00,0.00,0.00
2014-12-29 21:50:00,2,39756,31,0.00,2,2,0,2,20687,50000,10296,43104,0,78,38,0,0.00,0.00,0.00,0.00
2014-12-29 22:00:00,2,47376,0,0.00,2,2,0,2,42402,50000,2736,48684,0,0,0,0,0.00,0.00,0.00,0.00
2014-12-29 22:10:00,2,42959,0,0.00,2,2,0,2,22533,50000,9037,48032,0,0,0,0,0.00,0.00,0.00,0.00
2014-12-29 22:20:00,2,30502,77,0.00,2,2,0,2,20948,44787,8159,26642,71,78,3,78,0.00,0.00,0.00,0.00
2014-12-29 22:30:00,2,38422,7,0.01,2,2,0,2,15821,50000,9294,39241,0,71,21,0,0.00,0.05,0.02,0.00
2014-12-29 22:40:00,2,9764,77,0.03,2,2,0,2,6101,20172,3986,8507,71,78,2,78,0.00,0.05,0.03,0.03
2014-12-29 22:50:00,2,25422,75,0.02,2,2,0,2,12545,35770,8366,27814,71,78,3,78,0.00,0.10,0.03,0.00
2014-12-29 23:00:00,2,40577,54,0.00,2,2,0,2,30640,50000,6337,38451,0,78,36,78,0.00,0.00,0.00,0.00
2014-12-29 23:10:00,2,44872,7,0.00,2,2,0,2,17451,50000,10011,49700,0,71,21,0,0.00,0.00,0.00,0.00
2014-12-29 23:20:00,2,7532,77,0.07,2,2,0,2,4436,18564,4009,6191,71,78,2,78,0.00,0.10,0.03,0.05
2014-12-29 23:30:00,2,5240,77,0.09,2,2,0,2,4297,6464,717,5269,77,77,0,77,0.05,0.15,0.04,0.10
2014-12-29 23:40:00,2,5832,77,0.07,2,2,0,2,4606,6652,638,5974,77,77,0,77,0.05,0.10,0.02,0.05
2014-12-29 23:50:00,2,10439,77,0.03,2,2,0,2,6452,19127,3476,9713,77,78,0,77,0.00,0.05,0.02,0.05
